TimeCST,TemperatureF,Dew PointF,Humidity,Sea Level PressureIn,VisibilityMPH,Wind Direction,Wind SpeedMPH,Gust SpeedMPH,PrecipitationIn,Events,Conditions,WindDirDegrees,DateUTC
12:52 AM,6.1,1.0,80,30.34,10.0,North,6.9,-,N/A,,Partly Cloudy,360,2013-01-23 06:52:00
1:52 AM,5.0,1.0,84,30.35,10.0,NNW,8.1,-,N/A,,Clear,340,2013-01-23 07:52:00
2:52 AM,5.0,-0.0,80,30.38,10.0,NW,6.9,-,N/A,,Clear,320,2013-01-23 08:52:00
3:52 AM,1.9,-2.0,83,30.40,10.0,NW,10.4,-,N/A,,Clear,320,2013-01-23 09:52:00
4:52 AM,5.0,-0.0,80,30.42,10.0,NNW,8.1,-,N/A,,Mostly Cloudy,330,2013-01-23 10:52:00
5:52 AM,1.9,-2.0,83,30.44,10.0,North,8.1,-,N/A,,Clear,360,2013-01-23 11:52:00
6:52 AM,1.9,-2.9,80,30.46,10.0,North,12.7,-,N/A,,Clear,360,2013-01-23 12:52:00
7:52 AM,1.0,-5.1,75,30.48,10.0,North,10.4,-,N/A,,Clear,360,2013-01-23 13:52:00
8:52 AM,-0.0,-6.0,76,30.51,10.0,North,15.0,-,N/A,,Clear,10,2013-01-23 14:52:00
9:52 AM,-0.0,-7.1,72,30.56,10.0,NNE,10.4,-,N/A,,Clear,20,2013-01-23 15:52:00
10:52 AM,-0.0,-8.0,69,30.56,10.0,NNE,9.2,-,N/A,,Clear,30,2013-01-23 16:52:00
11:52 AM,-0.0,-7.1,72,30.59,10.0,NE,11.5,-,N/A,,Clear,40,2013-01-23 17:52:00
12:52 PM,1.0,-7.1,69,30.58,10.0,ENE,3.5,-,N/A,,Clear,60,2013-01-23 18:52:00
1:52 PM,1.9,-7.1,66,30.58,10.0,ENE,4.6,-,N/A,,Clear,60,2013-01-23 19:52:00
2:52 PM,1.9,-7.1,66,30.58,10.0,NNE,5.8,-,N/A,,Overcast,30,2013-01-23 20:52:00
3:52 PM,1.0,-7.1,69,30.58,10.0,ENE,6.9,-,N/A,,Partly Cloudy,60,2013-01-23 21:52:00
4:52 PM,1.9,-6.0,69,30.56,10.0,East,6.9,-,N/A,,Overcast,90,2013-01-23 22:52:00
5:52 PM,1.9,-5.1,72,30.55,10.0,SE,9.2,-,N/A,,Overcast,130,2013-01-23 23:52:00
6:52 PM,1.9,-5.1,72,30.54,10.0,SE,4.6,-,N/A,,Overcast,140,2013-01-24 00:52:00
7:52 PM,1.9,-5.1,72,30.52,10.0,ESE,8.1,-,N/A,,Mostly Cloudy,120,2013-01-24 01:52:00
8:52 PM,3.0,-2.9,76,30.51,10.0,ESE,10.4,-,N/A,,Overcast,120,2013-01-24 02:52:00
9:52 PM,3.0,-2.9,76,30.50,10.0,SE,9.2,-,N/A,,Clear,130,2013-01-24 03:52:00
10:52 PM,1.9,-2.9,80,30.46,10.0,ESE,12.7,-,N/A,,Clear,120,2013-01-24 04:52:00
11:52 PM,1.9,-4.0,76,30.43,10.0,SE,11.5,19.6,N/A,,Clear,130,2013-01-24 05:52:00